Data supplied by UK-AIR on 9/6/2008
All Data GMT hour ending 
Status: R =Ratified P=Provisional,P*=As supplied
,,Walsall Alumwell,,,,,,,,,,,,,,,,,,,,,,,
Date,time,"Nitric oxide",status,unit,"Nitrogen dioxide",status,unit,"Nitrogen oxides as nitrogen dioxide",status,unit
 
01-01-2007,01:00,0,R,ugm-3,10,R,ugm-3,10,R,ugm-3
01-01-2007,02:00,0,R,ugm-3,11,R,ugm-3,11,R,ugm-3
01-01-2007,03:00,0,R,ugm-3,8,R,ugm-3,8,R,ugm-3
01-01-2007,04:00,1,R,ugm-3,8,R,ugm-3,10,R,ugm-3
01-01-2007,05:00,0,R,ugm-3,8,R,ugm-3,8,R,ugm-3
01-01-2007,06:00,0,R,ugm-3,8,R,ugm-3,8,R,ugm-3
01-01-2007,07:00,0,R,ugm-3,8,R,ugm-3,8,R,ugm-3
01-01-2007,08:00,0,R,ugm-3,13,R,ugm-3,13,R,ugm-3
01-01-2007,09:00,1,R,ugm-3,13,R,ugm-3,15,R,ugm-3
01-01-2007,10:00,3,R,ugm-3,13,R,ugm-3,17,R,ugm-3
01-01-2007,11:00,4,R,ugm-3,19,R,ugm-3,25,R,ugm-3
01-01-2007,12:00,3,R,ugm-3,17,R,ugm-3,21,R,ugm-3
01-01-2007,13:00,4,R,ugm-3,19,R,ugm-3,25,R,ugm-3
01-01-2007,14:00,4,R,ugm-3,25,R,ugm-3,31,R,ugm-3
01-01-2007,15:00,3,R,ugm-3,17,R,ugm-3,21,R,ugm-3
01-01-2007,16:00,3,R,ugm-3,21,R,ugm-3,25,R,ugm-3
01-01-2007,17:00,3,R,ugm-3,23,R,ugm-3,27,R,ugm-3
01-01-2007,18:00,4,R,ugm-3,27,R,ugm-3,32,R,ugm-3
01-01-2007,19:00,4,R,ugm-3,29,R,ugm-3,34,R,ugm-3
01-01-2007,20:00,4,R,ugm-3,31,R,ugm-3,36,R,ugm-3
01-01-2007,21:00,4,R,ugm-3,25,R,ugm-3,31,R,ugm-3
01-01-2007,22:00,3,R,ugm-3,25,R,ugm-3,29,R,ugm-3
01-01-2007,23:00,3,R,ugm-3,19,R,ugm-3,23,R,ugm-3
01-01-2007,24:00,1,R,ugm-3,15,R,ugm-3,17,R,ugm-3
02-01-2007,01:00,1,R,ugm-3,8,R,ugm-3,10,R,ugm-3
02-01-2007,02:00,1,R,ugm-3,8,R,ugm-3,10,R,ugm-3
02-01-2007,03:00,1,R,ugm-3,8,R,ugm-3,10,R,ugm-3
02-01-2007,04:00,3,R,ugm-3,10,R,ugm-3,13,R,ugm-3
02-01-2007,05:00,4,R,ugm-3,17,R,ugm-3,23,R,ugm-3
02-01-2007,06:00,8,R,ugm-3,23,R,ugm-3,34,R,ugm-3
02-01-2007,07:00,10,R,ugm-3,32,R,ugm-3,48,R,ugm-3
02-01-2007,08:00,15,R,ugm-3,46,R,ugm-3,69,R,ugm-3
02-01-2007,09:00,16,R,ugm-3,48,R,ugm-3,73,R,ugm-3
02-01-2007,10:00,15,R,ugm-3,46,R,ugm-3,69,R,ugm-3
02-01-2007,11:00,13,R,ugm-3,40,R,ugm-3,59,R,ugm-3
02-01-2007,12:00,16,R,ugm-3,42,R,ugm-3,67,R,ugm-3
02-01-2007,13:00,14,R,ugm-3,34,R,ugm-3,55,R,ugm-3
02-01-2007,14:00,15,R,ugm-3,38,R,ugm-3,61,R,ugm-3
02-01-2007,15:00,14,R,ugm-3,36,R,ugm-3,57,R,ugm-3
02-01-2007,16:00,14,R,ugm-3,36,R,ugm-3,57,R,ugm-3
02-01-2007,17:00,13,R,ugm-3,38,R,ugm-3,57,R,ugm-3
02-01-2007,18:00,23,R,ugm-3,55,R,ugm-3,90,R,ugm-3
02-01-2007,19:00,23,R,ugm-3,59,R,ugm-3,94,R,ugm-3
02-01-2007,20:00,49,R,ugm-3,76,R,ugm-3,151,R,ugm-3
02-01-2007,21:00,41,R,ugm-3,67,R,ugm-3,130,R,ugm-3
02-01-2007,22:00,31,R,ugm-3,63,R,ugm-3,111,R,ugm-3
02-01-2007,23:00,15,R,ugm-3,46,R,ugm-3,69,R,ugm-3
02-01-2007,24:00,13,R,ugm-3,42,R,ugm-3,61,R,ugm-3
03-01-2007,01:00,13,R,ugm-3,40,R,ugm-3,59,R,ugm-3
03-01-2007,02:00,8,R,ugm-3,36,R,ugm-3,48,R,ugm-3
03-01-2007,03:00,1,R,ugm-3,27,R,ugm-3,29,R,ugm-3
03-01-2007,04:00,1,R,ugm-3,25,R,ugm-3,27,R,ugm-3
03-01-2007,05:00,3,R,ugm-3,29,R,ugm-3,32,R,ugm-3
03-01-2007,06:00,11,R,ugm-3,38,R,ugm-3,55,R,ugm-3
03-01-2007,07:00,9,R,ugm-3,38,R,ugm-3,52,R,ugm-3
03-01-2007,08:00,11,R,ugm-3,46,R,ugm-3,63,R,ugm-3
03-01-2007,09:00,6,R,ugm-3,48,R,ugm-3,57,R,ugm-3
03-01-2007,10:00,9,R,ugm-3,40,R,ugm-3,53,R,ugm-3
03-01-2007,11:00,18,R,ugm-3,46,R,ugm-3,73,R,ugm-3
03-01-2007,12:00,16,R,ugm-3,42,R,ugm-3,67,R,ugm-3
03-01-2007,13:00,15,R,ugm-3,40,R,ugm-3,63,R,ugm-3
03-01-2007,14:00,16,R,ugm-3,40,R,ugm-3,65,R,ugm-3
03-01-2007,15:00,9,R,ugm-3,40,R,ugm-3,53,R,ugm-3
03-01-2007,16:00,10,R,ugm-3,34,R,ugm-3,50,R,ugm-3
03-01-2007,17:00,8,R,ugm-3,36,R,ugm-3,48,R,ugm-3
03-01-2007,18:00,9,R,ugm-3,34,R,ugm-3,48,R,ugm-3
03-01-2007,19:00,5,R,ugm-3,38,R,ugm-3,46,R,ugm-3
03-01-2007,20:00,5,R,ugm-3,27,R,ugm-3,34,R,ugm-3
03-01-2007,21:00,4,R,ugm-3,23,R,ugm-3,29,R,ugm-3
03-01-2007,22:00,4,R,ugm-3,19,R,ugm-3,25,R,ugm-3
03-01-2007,23:00,4,R,ugm-3,17,R,ugm-3,23,R,ugm-3
03-01-2007,24:00,4,R,ugm-3,17,R,ugm-3,23,R,ugm-3
04-01-2007,01:00,4,R,ugm-3,11,R,ugm-3,17,R,ugm-3
04-01-2007,02:00,5,R,ugm-3,19,R,ugm-3,27,R,ugm-3
04-01-2007,03:00,5,R,ugm-3,15,R,ugm-3,23,R,ugm-3
04-01-2007,04:00,5,R,ugm-3,15,R,ugm-3,23,R,ugm-3
04-01-2007,05:00,9,R,ugm-3,21,R,ugm-3,34,R,ugm-3
04-01-2007,06:00,14,R,ugm-3,31,R,ugm-3,52,R,ugm-3
04-01-2007,07:00,14,R,ugm-3,36,R,ugm-3,57,R,ugm-3
04-01-2007,08:00,15,R,ugm-3,38,R,ugm-3,61,R,ugm-3
04-01-2007,09:00,16,R,ugm-3,48,R,ugm-3,73,R,ugm-3
04-01-2007,10:00,16,R,ugm-3,42,R,ugm-3,67,R,ugm-3
04-01-2007,11:00,18,R,ugm-3,46,R,ugm-3,73,R,ugm-3
04-01-2007,12:00,16,R,ugm-3,40,R,ugm-3,65,R,ugm-3
04-01-2007,13:00,23,R,ugm-3,48,R,ugm-3,82,R,ugm-3
04-01-2007,14:00,19,R,ugm-3,46,R,ugm-3,74,R,ugm-3
04-01-2007,15:00,21,R,ugm-3,52,R,ugm-3,84,R,ugm-3
04-01-2007,16:00,23,R,ugm-3,53,R,ugm-3,88,R,ugm-3
04-01-2007,17:00,25,R,ugm-3,55,R,ugm-3,94,R,ugm-3
04-01-2007,18:00,23,R,ugm-3,55,R,ugm-3,90,R,ugm-3
04-01-2007,19:00,14,R,ugm-3,42,R,ugm-3,63,R,ugm-3
04-01-2007,20:00,13,R,ugm-3,36,R,ugm-3,55,R,ugm-3
04-01-2007,21:00,11,R,ugm-3,32,R,ugm-3,50,R,ugm-3
04-01-2007,22:00,11,R,ugm-3,32,R,ugm-3,50,R,ugm-3
04-01-2007,23:00,9,R,ugm-3,31,R,ugm-3,44,R,ugm-3
04-01-2007,24:00,8,R,ugm-3,27,R,ugm-3,38,R,ugm-3
05-01-2007,01:00,10,R,ugm-3,32,R,ugm-3,48,R,ugm-3
05-01-2007,02:00,10,R,ugm-3,32,R,ugm-3,48,R,ugm-3
05-01-2007,03:00,10,R,ugm-3,38,R,ugm-3,53,R,ugm-3
05-01-2007,04:00,10,R,ugm-3,32,R,ugm-3,48,R,ugm-3
05-01-2007,05:00,14,R,ugm-3,42,R,ugm-3,63,R,ugm-3
05-01-2007,06:00,23,R,ugm-3,53,R,ugm-3,88,R,ugm-3
05-01-2007,07:00,19,R,ugm-3,48,R,ugm-3,76,R,ugm-3
05-01-2007,08:00,15,R,ugm-3,59,R,ugm-3,82,R,ugm-3
05-01-2007,09:00,29,R,ugm-3,63,R,ugm-3,107,R,ugm-3
05-01-2007,10:00,21,R,ugm-3,44,R,ugm-3,76,R,ugm-3
05-01-2007,11:00,20,R,ugm-3,38,R,ugm-3,69,R,ugm-3
05-01-2007,12:00,20,R,ugm-3,40,R,ugm-3,71,R,ugm-3
05-01-2007,13:00,20,R,ugm-3,40,R,ugm-3,71,R,ugm-3
05-01-2007,14:00,18,R,ugm-3,38,R,ugm-3,65,R,ugm-3
05-01-2007,15:00,28,R,ugm-3,53,R,ugm-3,96,R,ugm-3
05-01-2007,16:00,25,R,ugm-3,57,R,ugm-3,96,R,ugm-3
05-01-2007,17:00,19,R,ugm-3,55,R,ugm-3,84,R,ugm-3
05-01-2007,18:00,28,R,ugm-3,69,R,ugm-3,111,R,ugm-3
05-01-2007,19:00,38,R,ugm-3,71,R,ugm-3,128,R,ugm-3
05-01-2007,20:00,25,R,ugm-3,61,R,ugm-3,99,R,ugm-3
05-01-2007,21:00,29,R,ugm-3,63,R,ugm-3,107,R,ugm-3
05-01-2007,22:00,33,R,ugm-3,65,R,ugm-3,115,R,ugm-3
05-01-2007,23:00,15,R,ugm-3,48,R,ugm-3,71,R,ugm-3
05-01-2007,24:00,20,R,ugm-3,52,R,ugm-3,82,R,ugm-3
06-01-2007,01:00,20,R,ugm-3,48,R,ugm-3,78,R,ugm-3
06-01-2007,02:00,13,R,ugm-3,42,R,ugm-3,61,R,ugm-3
06-01-2007,03:00,11,R,ugm-3,36,R,ugm-3,53,R,ugm-3
06-01-2007,04:00,6,R,ugm-3,31,R,ugm-3,40,R,ugm-3
06-01-2007,05:00,10,R,ugm-3,32,R,ugm-3,48,R,ugm-3
06-01-2007,06:00,8,R,ugm-3,34,R,ugm-3,46,R,ugm-3
06-01-2007,07:00,6,R,ugm-3,40,R,ugm-3,50,R,ugm-3
06-01-2007,08:00,13,R,ugm-3,44,R,ugm-3,63,R,ugm-3
06-01-2007,09:00,16,R,ugm-3,52,R,ugm-3,76,R,ugm-3
06-01-2007,10:00,9,R,ugm-3,44,R,ugm-3,57,R,ugm-3
06-01-2007,11:00,11,R,ugm-3,48,R,ugm-3,65,R,ugm-3
06-01-2007,12:00,10,R,ugm-3,46,R,ugm-3,61,R,ugm-3
06-01-2007,13:00,18,R,ugm-3,55,R,ugm-3,82,R,ugm-3
06-01-2007,14:00,21,R,ugm-3,57,R,ugm-3,90,R,ugm-3
06-01-2007,15:00,21,R,ugm-3,57,R,ugm-3,90,R,ugm-3
06-01-2007,16:00,13,R,ugm-3,44,R,ugm-3,63,R,ugm-3
06-01-2007,17:00,20,R,ugm-3,53,R,ugm-3,84,R,ugm-3
06-01-2007,18:00,30,R,ugm-3,69,R,ugm-3,115,R,ugm-3
06-01-2007,19:00,26,R,ugm-3,67,R,ugm-3,107,R,ugm-3
06-01-2007,20:00,16,R,ugm-3,67,R,ugm-3,92,R,ugm-3
06-01-2007,21:00,8,R,ugm-3,48,R,ugm-3,59,R,ugm-3
06-01-2007,22:00,5,R,ugm-3,34,R,ugm-3,42,R,ugm-3
06-01-2007,23:00,1,R,ugm-3,19,R,ugm-3,21,R,ugm-3
06-01-2007,24:00,3,R,ugm-3,19,R,ugm-3,23,R,ugm-3
07-01-2007,01:00,3,R,ugm-3,15,R,ugm-3,19,R,ugm-3
07-01-2007,02:00,1,R,ugm-3,11,R,ugm-3,13,R,ugm-3
07-01-2007,03:00,1,R,ugm-3,8,R,ugm-3,10,R,ugm-3
07-01-2007,04:00,3,R,ugm-3,10,R,ugm-3,13,R,ugm-3
07-01-2007,05:00,3,R,ugm-3,13,R,ugm-3,17,R,ugm-3
07-01-2007,06:00,3,R,ugm-3,13,R,ugm-3,17,R,ugm-3
07-01-2007,07:00,3,R,ugm-3,17,R,ugm-3,21,R,ugm-3
07-01-2007,08:00,3,R,ugm-3,19,R,ugm-3,23,R,ugm-3
07-01-2007,09:00,4,R,ugm-3,23,R,ugm-3,29,R,ugm-3
07-01-2007,10:00,5,R,ugm-3,27,R,ugm-3,34,R,ugm-3
07-01-2007,11:00,4,R,ugm-3,21,R,ugm-3,27,R,ugm-3
07-01-2007,12:00,4,R,ugm-3,23,R,ugm-3,29,R,ugm-3
07-01-2007,13:00,5,R,ugm-3,27,R,ugm-3,34,R,ugm-3
07-01-2007,14:00,3,R,ugm-3,19,R,ugm-3,23,R,ugm-3
07-01-2007,15:00,3,R,ugm-3,19,R,ugm-3,23,R,ugm-3
07-01-2007,16:00,3,R,ugm-3,19,R,ugm-3,23,R,ugm-3
07-01-2007,17:00,3,R,ugm-3,19,R,ugm-3,23,R,ugm-3
07-01-2007,18:00,3,R,ugm-3,17,R,ugm-3,21,R,ugm-3
07-01-2007,19:00,3,R,ugm-3,15,R,ugm-3,19,R,ugm-3
07-01-2007,20:00,1,R,ugm-3,13,R,ugm-3,15,R,ugm-3
07-01-2007,21:00,3,R,ugm-3,13,R,ugm-3,17,R,ugm-3
07-01-2007,22:00,3,R,ugm-3,13,R,ugm-3,17,R,ugm-3
07-01-2007,23:00,3,R,ugm-3,15,R,ugm-3,19,R,ugm-3
07-01-2007,24:00,3,R,ugm-3,13,R,ugm-3,17,R,ugm-3
08-01-2007,01:00,1,R,ugm-3,13,R,ugm-3,15,R,ugm-3
08-01-2007,02:00,3,R,ugm-3,17,R,ugm-3,21,R,ugm-3
08-01-2007,03:00,3,R,ugm-3,21,R,ugm-3,25,R,ugm-3
08-01-2007,04:00,6,R,ugm-3,23,R,ugm-3,32,R,ugm-3
08-01-2007,05:00,13,R,ugm-3,32,R,ugm-3,52,R,ugm-3
08-01-2007,06:00,38,R,ugm-3,53,R,ugm-3,111,R,ugm-3
08-01-2007,07:00,44,R,ugm-3,63,R,ugm-3,130,R,ugm-3
08-01-2007,08:00,38,R,ugm-3,65,R,ugm-3,122,R,ugm-3
08-01-2007,09:00,24,R,ugm-3,65,R,ugm-3,101,R,ugm-3
08-01-2007,10:00,14,R,ugm-3,57,R,ugm-3,78,R,ugm-3
08-01-2007,11:00,11,R,ugm-3,52,R,ugm-3,69,R,ugm-3
08-01-2007,12:00,5,R,ugm-3,42,R,ugm-3,50,R,ugm-3
08-01-2007,13:00,5,R,ugm-3,44,R,ugm-3,52,R,ugm-3
08-01-2007,14:00,13,R,ugm-3,44,R,ugm-3,63,R,ugm-3
08-01-2007,15:00,19,R,ugm-3,46,R,ugm-3,74,R,ugm-3
08-01-2007,16:00,23,R,ugm-3,52,R,ugm-3,86,R,ugm-3
08-01-2007,17:00,23,R,ugm-3,53,R,ugm-3,88,R,ugm-3
08-01-2007,18:00,11,R,ugm-3,36,R,ugm-3,53,R,ugm-3
08-01-2007,19:00,10,R,ugm-3,32,R,ugm-3,48,R,ugm-3
08-01-2007,20:00,6,R,ugm-3,25,R,ugm-3,34,R,ugm-3
08-01-2007,21:00,4,R,ugm-3,19,R,ugm-3,25,R,ugm-3
08-01-2007,22:00,4,R,ugm-3,17,R,ugm-3,23,R,ugm-3
08-01-2007,23:00,4,R,ugm-3,13,R,ugm-3,19,R,ugm-3
08-01-2007,24:00,3,R,ugm-3,13,R,ugm-3,17,R,ugm-3
09-01-2007,01:00,3,R,ugm-3,13,R,ugm-3,17,R,ugm-3
09-01-2007,02:00,3,R,ugm-3,15,R,ugm-3,19,R,ugm-3
09-01-2007,03:00,3,R,ugm-3,15,R,ugm-3,19,R,ugm-3
09-01-2007,04:00,4,R,ugm-3,15,R,ugm-3,21,R,ugm-3
09-01-2007,05:00,5,R,ugm-3,17,R,ugm-3,25,R,ugm-3
09-01-2007,06:00,8,R,ugm-3,21,R,ugm-3,32,R,ugm-3
09-01-2007,07:00,16,R,ugm-3,38,R,ugm-3,63,R,ugm-3
09-01-2007,08:00,14,R,ugm-3,42,R,ugm-3,63,R,ugm-3
09-01-2007,09:00,15,R,ugm-3,48,R,ugm-3,71,R,ugm-3
09-01-2007,10:00,14,R,ugm-3,40,R,ugm-3,61,R,ugm-3
09-01-2007,11:00,13,R,ugm-3,34,R,ugm-3,53,R,ugm-3
09-01-2007,12:00,11,R,ugm-3,27,R,ugm-3,44,R,ugm-3
09-01-2007,13:00,13,R,ugm-3,31,R,ugm-3,50,R,ugm-3
09-01-2007,14:00,16,R,ugm-3,40,R,ugm-3,65,R,ugm-3
09-01-2007,15:00,14,R,ugm-3,40,R,ugm-3,61,R,ugm-3
09-01-2007,16:00,29,R,ugm-3,63,R,ugm-3,107,R,ugm-3
09-01-2007,17:00,23,R,ugm-3,59,R,ugm-3,94,R,ugm-3
09-01-2007,18:00,20,R,ugm-3,55,R,ugm-3,86,R,ugm-3
09-01-2007,19:00,30,R,ugm-3,69,R,ugm-3,115,R,ugm-3
09-01-2007,20:00,16,R,ugm-3,63,R,ugm-3,88,R,ugm-3
09-01-2007,21:00,14,R,ugm-3,52,R,ugm-3,73,R,ugm-3
09-01-2007,22:00,11,R,ugm-3,44,R,ugm-3,61,R,ugm-3
09-01-2007,23:00,6,R,ugm-3,36,R,ugm-3,46,R,ugm-3
09-01-2007,24:00,5,R,ugm-3,34,R,ugm-3,42,R,ugm-3
10-01-2007,01:00,4,R,ugm-3,32,R,ugm-3,38,R,ugm-3
10-01-2007,02:00,9,R,ugm-3,42,R,ugm-3,55,R,ugm-3
10-01-2007,03:00,6,R,ugm-3,38,R,ugm-3,48,R,ugm-3
10-01-2007,04:00,3,R,ugm-3,29,R,ugm-3,32,R,ugm-3
10-01-2007,05:00,11,R,ugm-3,34,R,ugm-3,52,R,ugm-3
10-01-2007,06:00,16,R,ugm-3,34,R,ugm-3,59,R,ugm-3
10-01-2007,07:00,33,R,ugm-3,55,R,ugm-3,105,R,ugm-3
10-01-2007,08:00,29,R,ugm-3,57,R,ugm-3,101,R,ugm-3
10-01-2007,09:00,36,R,ugm-3,71,R,ugm-3,126,R,ugm-3
10-01-2007,10:00,40,R,ugm-3,67,R,ugm-3,128,R,ugm-3
10-01-2007,11:00,28,R,ugm-3,48,R,ugm-3,90,R,ugm-3
10-01-2007,12:00,28,R,ugm-3,44,R,ugm-3,86,R,ugm-3
10-01-2007,13:00,,,,,,,,,
10-01-2007,14:00,,,,,,,,,
10-01-2007,15:00,19,R,ugm-3,44,R,ugm-3,73,R,ugm-3
10-01-2007,16:00,24,R,ugm-3,52,R,ugm-3,88,R,ugm-3
10-01-2007,17:00,39,R,ugm-3,63,R,ugm-3,122,R,ugm-3
10-01-2007,18:00,34,R,ugm-3,63,R,ugm-3,115,R,ugm-3
10-01-2007,19:00,23,R,ugm-3,52,R,ugm-3,86,R,ugm-3
10-01-2007,20:00,15,R,ugm-3,44,R,ugm-3,67,R,ugm-3
10-01-2007,21:00,11,R,ugm-3,40,R,ugm-3,57,R,ugm-3
10-01-2007,22:00,6,R,ugm-3,36,R,ugm-3,46,R,ugm-3
10-01-2007,23:00,1,R,ugm-3,21,R,ugm-3,23,R,ugm-3
10-01-2007,24:00,3,R,ugm-3,23,R,ugm-3,27,R,ugm-3
11-01-2007,01:00,3,R,ugm-3,19,R,ugm-3,23,R,ugm-3
11-01-2007,02:00,5,R,ugm-3,25,R,ugm-3,32,R,ugm-3
11-01-2007,03:00,4,R,ugm-3,17,R,ugm-3,23,R,ugm-3
11-01-2007,04:00,4,R,ugm-3,19,R,ugm-3,25,R,ugm-3
11-01-2007,05:00,6,R,ugm-3,17,R,ugm-3,27,R,ugm-3
11-01-2007,06:00,9,R,ugm-3,21,R,ugm-3,34,R,ugm-3
11-01-2007,07:00,10,R,ugm-3,23,R,ugm-3,38,R,ugm-3
11-01-2007,08:00,10,R,ugm-3,27,R,ugm-3,42,R,ugm-3
11-01-2007,09:00,11,R,ugm-3,29,R,ugm-3,46,R,ugm-3
11-01-2007,10:00,,,,,,,,,
11-01-2007,11:00,,,,,,,,,
11-01-2007,12:00,,,,,,,,,
11-01-2007,13:00,10,R,ugm-3,19,R,ugm-3,34,R,ugm-3
11-01-2007,14:00,11,R,ugm-3,19,R,ugm-3,36,R,ugm-3
11-01-2007,15:00,13,R,ugm-3,23,R,ugm-3,42,R,ugm-3
11-01-2007,16:00,14,R,ugm-3,27,R,ugm-3,48,R,ugm-3
11-01-2007,17:00,13,R,ugm-3,27,R,ugm-3,46,R,ugm-3
11-01-2007,18:00,14,R,ugm-3,31,R,ugm-3,52,R,ugm-3
11-01-2007,19:00,10,R,ugm-3,32,R,ugm-3,48,R,ugm-3
11-01-2007,20:00,10,R,ugm-3,34,R,ugm-3,50,R,ugm-3
11-01-2007,21:00,10,R,ugm-3,32,R,ugm-3,48,R,ugm-3
11-01-2007,22:00,5,R,ugm-3,29,R,ugm-3,36,R,ugm-3
11-01-2007,23:00,5,R,ugm-3,27,R,ugm-3,34,R,ugm-3
11-01-2007,24:00,5,R,ugm-3,25,R,ugm-3,32,R,ugm-3
12-01-2007,01:00,8,R,ugm-3,15,R,ugm-3,27,R,ugm-3
12-01-2007,02:00,9,R,ugm-3,15,R,ugm-3,29,R,ugm-3
12-01-2007,03:00,11,R,ugm-3,25,R,ugm-3,42,R,ugm-3
12-01-2007,04:00,13,R,ugm-3,25,R,ugm-3,44,R,ugm-3
12-01-2007,05:00,15,R,ugm-3,32,R,ugm-3,55,R,ugm-3
12-01-2007,06:00,18,R,ugm-3,44,R,ugm-3,71,R,ugm-3
12-01-2007,07:00,20,R,ugm-3,32,R,ugm-3,63,R,ugm-3
12-01-2007,08:00,20,R,ugm-3,32,R,ugm-3,63,R,ugm-3
12-01-2007,09:00,20,R,ugm-3,36,R,ugm-3,67,R,ugm-3
12-01-2007,10:00,21,R,ugm-3,36,R,ugm-3,69,R,ugm-3
12-01-2007,11:00,18,R,ugm-3,31,R,ugm-3,57,R,ugm-3
12-01-2007,12:00,16,R,ugm-3,36,R,ugm-3,61,R,ugm-3
12-01-2007,13:00,15,R,ugm-3,31,R,ugm-3,53,R,ugm-3
12-01-2007,14:00,16,R,ugm-3,23,R,ugm-3,48,R,ugm-3
12-01-2007,15:00,16,R,ugm-3,25,R,ugm-3,50,R,ugm-3
12-01-2007,16:00,15,R,ugm-3,27,R,ugm-3,50,R,ugm-3
12-01-2007,17:00,13,R,ugm-3,29,R,ugm-3,48,R,ugm-3
12-01-2007,18:00,13,R,ugm-3,27,R,ugm-3,46,R,ugm-3
12-01-2007,19:00,10,R,ugm-3,23,R,ugm-3,38,R,ugm-3
12-01-2007,20:00,10,R,ugm-3,17,R,ugm-3,32,R,ugm-3
12-01-2007,21:00,10,R,ugm-3,19,R,ugm-3,34,R,ugm-3
12-01-2007,22:00,10,R,ugm-3,25,R,ugm-3,40,R,ugm-3
12-01-2007,23:00,8,R,ugm-3,13,R,ugm-3,25,R,ugm-3
12-01-2007,24:00,6,R,ugm-3,11,R,ugm-3,21,R,ugm-3
13-01-2007,01:00,11,R,ugm-3,15,R,ugm-3,32,R,ugm-3
13-01-2007,02:00,10,R,ugm-3,4,R,ugm-3,19,R,ugm-3
13-01-2007,03:00,10,R,ugm-3,6,R,ugm-3,21,R,ugm-3
13-01-2007,04:00,10,R,ugm-3,10,R,ugm-3,25,R,ugm-3
13-01-2007,05:00,9,R,ugm-3,8,R,ugm-3,21,R,ugm-3
13-01-2007,06:00,10,R,ugm-3,10,R,ugm-3,25,R,ugm-3
13-01-2007,07:00,11,R,ugm-3,10,R,ugm-3,27,R,ugm-3
13-01-2007,08:00,9,R,ugm-3,4,R,ugm-3,17,R,ugm-3
13-01-2007,09:00,11,R,ugm-3,4,R,ugm-3,21,R,ugm-3
13-01-2007,10:00,13,R,ugm-3,74,R,ugm-3,94,R,ugm-3
13-01-2007,11:00,14,R,ugm-3,10,R,ugm-3,31,R,ugm-3
13-01-2007,12:00,13,R,ugm-3,10,R,ugm-3,29,R,ugm-3
13-01-2007,13:00,11,R,ugm-3,10,R,ugm-3,27,R,ugm-3
13-01-2007,14:00,10,R,ugm-3,11,R,ugm-3,27,R,ugm-3
13-01-2007,15:00,10,R,ugm-3,10,R,ugm-3,25,R,ugm-3
13-01-2007,16:00,10,R,ugm-3,13,R,ugm-3,29,R,ugm-3
13-01-2007,17:00,10,R,ugm-3,13,R,ugm-3,29,R,ugm-3
13-01-2007,18:00,9,R,ugm-3,13,R,ugm-3,27,R,ugm-3
13-01-2007,19:00,,,,,,,,,
13-01-2007,20:00,,,,,,,,,
13-01-2007,21:00,,,,,,,,,
13-01-2007,22:00,1,R,ugm-3,11,R,ugm-3,13,R,ugm-3
13-01-2007,23:00,3,R,ugm-3,10,R,ugm-3,13,R,ugm-3
13-01-2007,24:00,4,R,ugm-3,11,R,ugm-3,17,R,ugm-3
14-01-2007,01:00,1,R,ugm-3,4,R,ugm-3,6,R,ugm-3
14-01-2007,02:00,1,R,ugm-3,2,R,ugm-3,4,R,ugm-3
14-01-2007,03:00,1,R,ugm-3,4,R,ugm-3,6,R,ugm-3
14-01-2007,04:00,3,R,ugm-3,6,R,ugm-3,10,R,ugm-3
14-01-2007,05:00,3,R,ugm-3,4,R,ugm-3,8,R,ugm-3
14-01-2007,06:00,3,R,ugm-3,6,R,ugm-3,10,R,ugm-3
14-01-2007,07:00,4,R,ugm-3,15,R,ugm-3,21,R,ugm-3
14-01-2007,08:00,6,R,ugm-3,21,R,ugm-3,31,R,ugm-3
14-01-2007,09:00,6,R,ugm-3,17,R,ugm-3,27,R,ugm-3
14-01-2007,10:00,9,R,ugm-3,17,R,ugm-3,31,R,ugm-3
14-01-2007,11:00,11,R,ugm-3,19,R,ugm-3,36,R,ugm-3
14-01-2007,12:00,10,R,ugm-3,17,R,ugm-3,32,R,ugm-3
14-01-2007,13:00,9,R,ugm-3,13,R,ugm-3,27,R,ugm-3
14-01-2007,14:00,9,R,ugm-3,17,R,ugm-3,31,R,ugm-3
14-01-2007,15:00,8,R,ugm-3,21,R,ugm-3,32,R,ugm-3
14-01-2007,16:00,9,R,ugm-3,34,R,ugm-3,48,R,ugm-3
14-01-2007,17:00,15,R,ugm-3,44,R,ugm-3,67,R,ugm-3
14-01-2007,18:00,18,R,ugm-3,48,R,ugm-3,74,R,ugm-3
14-01-2007,19:00,14,R,ugm-3,46,R,ugm-3,67,R,ugm-3
14-01-2007,20:00,8,R,ugm-3,42,R,ugm-3,53,R,ugm-3
14-01-2007,21:00,13,R,ugm-3,40,R,ugm-3,59,R,ugm-3
14-01-2007,22:00,10,R,ugm-3,34,R,ugm-3,50,R,ugm-3
14-01-2007,23:00,6,R,ugm-3,25,R,ugm-3,34,R,ugm-3
14-01-2007,24:00,4,R,ugm-3,19,R,ugm-3,25,R,ugm-3
15-01-2007,01:00,4,R,ugm-3,29,R,ugm-3,34,R,ugm-3
15-01-2007,02:00,1,R,ugm-3,25,R,ugm-3,27,R,ugm-3
15-01-2007,03:00,4,R,ugm-3,29,R,ugm-3,34,R,ugm-3
15-01-2007,04:00,5,R,ugm-3,32,R,ugm-3,40,R,ugm-3
15-01-2007,05:00,9,R,ugm-3,34,R,ugm-3,48,R,ugm-3
15-01-2007,06:00,26,R,ugm-3,53,R,ugm-3,94,R,ugm-3
15-01-2007,07:00,31,R,ugm-3,59,R,ugm-3,107,R,ugm-3
15-01-2007,08:00,26,R,ugm-3,61,R,ugm-3,101,R,ugm-3
15-01-2007,09:00,25,R,ugm-3,63,R,ugm-3,101,R,ugm-3
15-01-2007,10:00,,,,,,,,,
15-01-2007,11:00,,,,,,,,,
15-01-2007,12:00,,,,,,,,,
15-01-2007,13:00,,,,,,,,,
15-01-2007,14:00,,,,,,,,,
15-01-2007,15:00,,,,,,,,,
15-01-2007,16:00,,,,,,,,,
15-01-2007,17:00,,,,,,,,,
15-01-2007,18:00,,,,,,,,,
15-01-2007,19:00,,,,,,,,,
15-01-2007,20:00,,,,,,,,,
15-01-2007,21:00,,,,,,,,,
15-01-2007,22:00,,,,,,,,,
15-01-2007,23:00,,,,,,,,,
15-01-2007,24:00,,,,,,,,,
16-01-2007,01:00,,,,,,,,,
16-01-2007,02:00,,,,,,,,,
16-01-2007,03:00,,,,,,,,,
16-01-2007,04:00,,,,,,,,,
16-01-2007,05:00,,,,,,,,,
16-01-2007,06:00,,,,,,,,,
16-01-2007,07:00,,,,,,,,,
16-01-2007,08:00,,,,,,,,,
16-01-2007,09:00,,,,,,,,,
16-01-2007,10:00,,,,,,,,,
16-01-2007,11:00,,,,,,,,,
16-01-2007,12:00,,,,,,,,,
16-01-2007,13:00,13,R,ugm-3,42,R,ugm-3,61,R,ugm-3
16-01-2007,14:00,14,R,ugm-3,34,R,ugm-3,55,R,ugm-3
16-01-2007,15:00,13,R,ugm-3,32,R,ugm-3,52,R,ugm-3
16-01-2007,16:00,25,R,ugm-3,40,R,ugm-3,78,R,ugm-3
16-01-2007,17:00,49,R,ugm-3,42,R,ugm-3,117,R,ugm-3
16-01-2007,18:00,75,R,ugm-3,94,R,ugm-3,208,R,ugm-3
16-01-2007,19:00,108,R,ugm-3,71,R,ugm-3,235,R,ugm-3
16-01-2007,20:00,15,R,ugm-3,55,R,ugm-3,78,R,ugm-3
16-01-2007,21:00,3,R,ugm-3,34,R,ugm-3,38,R,ugm-3
16-01-2007,22:00,4,R,ugm-3,31,R,ugm-3,36,R,ugm-3
16-01-2007,23:00,5,R,ugm-3,29,R,ugm-3,36,R,ugm-3
16-01-2007,24:00,3,R,ugm-3,25,R,ugm-3,29,R,ugm-3
17-01-2007,01:00,4,R,ugm-3,15,R,ugm-3,21,R,ugm-3
17-01-2007,02:00,5,R,ugm-3,13,R,ugm-3,21,R,ugm-3
17-01-2007,03:00,6,R,ugm-3,15,R,ugm-3,25,R,ugm-3
17-01-2007,04:00,6,R,ugm-3,13,R,ugm-3,23,R,ugm-3
17-01-2007,05:00,6,R,ugm-3,17,R,ugm-3,27,R,ugm-3
17-01-2007,06:00,10,R,ugm-3,19,R,ugm-3,34,R,ugm-3
17-01-2007,07:00,,,,,,,,,
17-01-2007,08:00,,,,,,,,,
17-01-2007,09:00,,,,,,,,,
17-01-2007,10:00,,,,,,,,,
17-01-2007,11:00,26,R,ugm-3,29,R,ugm-3,69,R,ugm-3
17-01-2007,12:00,25,R,ugm-3,21,R,ugm-3,59,R,ugm-3
17-01-2007,13:00,25,R,ugm-3,19,R,ugm-3,57,R,ugm-3
17-01-2007,14:00,31,R,ugm-3,21,R,ugm-3,69,R,ugm-3
17-01-2007,15:00,25,R,ugm-3,25,R,ugm-3,63,R,ugm-3
17-01-2007,16:00,23,R,ugm-3,44,R,ugm-3,78,R,ugm-3
17-01-2007,17:00,28,R,ugm-3,32,R,ugm-3,74,R,ugm-3
17-01-2007,18:00,29,R,ugm-3,34,R,ugm-3,78,R,ugm-3
17-01-2007,19:00,36,R,ugm-3,44,R,ugm-3,99,R,ugm-3
17-01-2007,20:00,19,R,ugm-3,31,R,ugm-3,59,R,ugm-3
17-01-2007,21:00,15,R,ugm-3,21,R,ugm-3,44,R,ugm-3
17-01-2007,22:00,14,R,ugm-3,19,R,ugm-3,40,R,ugm-3
17-01-2007,23:00,11,R,ugm-3,23,R,ugm-3,40,R,ugm-3
17-01-2007,24:00,9,R,ugm-3,23,R,ugm-3,36,R,ugm-3
18-01-2007,01:00,11,R,ugm-3,19,R,ugm-3,36,R,ugm-3
18-01-2007,02:00,6,R,ugm-3,10,R,ugm-3,19,R,ugm-3
18-01-2007,03:00,10,R,ugm-3,122,R,ugm-3,138,R,ugm-3
18-01-2007,04:00,,,,,,,,,
18-01-2007,05:00,4,R,ugm-3,21,R,ugm-3,27,R,ugm-3
18-01-2007,06:00,8,R,ugm-3,17,R,ugm-3,29,R,ugm-3
18-01-2007,07:00,8,R,ugm-3,23,R,ugm-3,34,R,ugm-3
18-01-2007,08:00,10,R,ugm-3,21,R,ugm-3,36,R,ugm-3
18-01-2007,09:00,11,R,ugm-3,25,R,ugm-3,42,R,ugm-3
18-01-2007,10:00,10,R,ugm-3,11,R,ugm-3,27,R,ugm-3
18-01-2007,11:00,11,R,ugm-3,15,R,ugm-3,32,R,ugm-3
18-01-2007,12:00,13,R,ugm-3,10,R,ugm-3,29,R,ugm-3
18-01-2007,13:00,11,R,ugm-3,6,R,ugm-3,23,R,ugm-3
18-01-2007,14:00,11,R,ugm-3,6,R,ugm-3,23,R,ugm-3
18-01-2007,15:00,11,R,ugm-3,6,R,ugm-3,23,R,ugm-3
18-01-2007,16:00,14,R,ugm-3,8,R,ugm-3,29,R,ugm-3
18-01-2007,17:00,13,R,ugm-3,6,R,ugm-3,25,R,ugm-3
18-01-2007,18:00,15,R,ugm-3,10,R,ugm-3,32,R,ugm-3
18-01-2007,19:00,14,R,ugm-3,10,R,ugm-3,31,R,ugm-3
18-01-2007,20:00,14,R,ugm-3,8,R,ugm-3,29,R,ugm-3
18-01-2007,21:00,16,R,ugm-3,11,R,ugm-3,36,R,ugm-3
18-01-2007,22:00,15,R,ugm-3,10,R,ugm-3,32,R,ugm-3
18-01-2007,23:00,15,R,ugm-3,11,R,ugm-3,34,R,ugm-3
18-01-2007,24:00,9,R,ugm-3,4,R,ugm-3,17,R,ugm-3
19-01-2007,01:00,5,R,ugm-3,13,R,ugm-3,21,R,ugm-3
19-01-2007,02:00,4,R,ugm-3,10,R,ugm-3,15,R,ugm-3
19-01-2007,03:00,5,R,ugm-3,11,R,ugm-3,19,R,ugm-3
19-01-2007,04:00,6,R,ugm-3,15,R,ugm-3,25,R,ugm-3
19-01-2007,05:00,8,R,ugm-3,15,R,ugm-3,27,R,ugm-3
19-01-2007,06:00,11,R,ugm-3,19,R,ugm-3,36,R,ugm-3
19-01-2007,07:00,16,R,ugm-3,25,R,ugm-3,50,R,ugm-3
19-01-2007,08:00,28,R,ugm-3,36,R,ugm-3,78,R,ugm-3
19-01-2007,09:00,36,R,ugm-3,42,R,ugm-3,97,R,ugm-3
19-01-2007,10:00,33,R,ugm-3,42,R,ugm-3,92,R,ugm-3
19-01-2007,11:00,31,R,ugm-3,32,R,ugm-3,80,R,ugm-3
19-01-2007,12:00,35,R,ugm-3,38,R,ugm-3,92,R,ugm-3
19-01-2007,13:00,30,R,ugm-3,34,R,ugm-3,80,R,ugm-3
19-01-2007,14:00,36,R,ugm-3,40,R,ugm-3,96,R,ugm-3
19-01-2007,15:00,38,R,ugm-3,44,R,ugm-3,101,R,ugm-3
19-01-2007,16:00,21,R,ugm-3,36,R,ugm-3,69,R,ugm-3
19-01-2007,17:00,24,R,ugm-3,44,R,ugm-3,80,R,ugm-3
19-01-2007,18:00,9,R,ugm-3,32,R,ugm-3,46,R,ugm-3
19-01-2007,19:00,11,R,ugm-3,34,R,ugm-3,52,R,ugm-3
19-01-2007,20:00,13,R,ugm-3,32,R,ugm-3,52,R,ugm-3
19-01-2007,21:00,9,R,ugm-3,25,R,ugm-3,38,R,ugm-3
19-01-2007,22:00,5,R,ugm-3,13,R,ugm-3,21,R,ugm-3
19-01-2007,23:00,5,R,ugm-3,13,R,ugm-3,21,R,ugm-3
19-01-2007,24:00,4,R,ugm-3,11,R,ugm-3,17,R,ugm-3
20-01-2007,01:00,5,R,ugm-3,15,R,ugm-3,23,R,ugm-3
20-01-2007,02:00,4,R,ugm-3,13,R,ugm-3,19,R,ugm-3
20-01-2007,03:00,5,R,ugm-3,15,R,ugm-3,23,R,ugm-3
20-01-2007,04:00,4,R,ugm-3,11,R,ugm-3,17,R,ugm-3
20-01-2007,05:00,3,R,ugm-3,8,R,ugm-3,11,R,ugm-3
20-01-2007,06:00,5,R,ugm-3,15,R,ugm-3,23,R,ugm-3
20-01-2007,07:00,5,R,ugm-3,17,R,ugm-3,25,R,ugm-3
20-01-2007,08:00,8,R,ugm-3,21,R,ugm-3,32,R,ugm-3
20-01-2007,09:00,9,R,ugm-3,27,R,ugm-3,40,R,ugm-3
20-01-2007,10:00,8,R,ugm-3,21,R,ugm-3,32,R,ugm-3
20-01-2007,11:00,8,R,ugm-3,17,R,ugm-3,29,R,ugm-3
20-01-2007,12:00,8,R,ugm-3,17,R,ugm-3,29,R,ugm-3
20-01-2007,13:00,8,R,ugm-3,15,R,ugm-3,27,R,ugm-3
20-01-2007,14:00,5,R,ugm-3,13,R,ugm-3,21,R,ugm-3
20-01-2007,15:00,6,R,ugm-3,17,R,ugm-3,27,R,ugm-3
20-01-2007,16:00,5,R,ugm-3,17,R,ugm-3,25,R,ugm-3
20-01-2007,17:00,5,R,ugm-3,23,R,ugm-3,31,R,ugm-3
20-01-2007,18:00,5,R,ugm-3,21,R,ugm-3,29,R,ugm-3
20-01-2007,19:00,5,R,ugm-3,21,R,ugm-3,29,R,ugm-3
20-01-2007,20:00,4,R,ugm-3,17,R,ugm-3,23,R,ugm-3
20-01-2007,21:00,3,R,ugm-3,17,R,ugm-3,21,R,ugm-3
20-01-2007,22:00,3,R,ugm-3,19,R,ugm-3,23,R,ugm-3
20-01-2007,23:00,1,R,ugm-3,11,R,ugm-3,13,R,ugm-3
20-01-2007,24:00,1,R,ugm-3,10,R,ugm-3,11,R,ugm-3
21-01-2007,01:00,3,R,ugm-3,6,R,ugm-3,10,R,ugm-3
21-01-2007,02:00,3,R,ugm-3,4,R,ugm-3,8,R,ugm-3
21-01-2007,03:00,3,R,ugm-3,4,R,ugm-3,8,R,ugm-3
21-01-2007,04:00,3,R,ugm-3,6,R,ugm-3,10,R,ugm-3
21-01-2007,05:00,3,R,ugm-3,13,R,ugm-3,17,R,ugm-3
21-01-2007,06:00,1,R,ugm-3,6,R,ugm-3,8,R,ugm-3
21-01-2007,07:00,3,R,ugm-3,10,R,ugm-3,13,R,ugm-3
21-01-2007,08:00,5,R,ugm-3,25,R,ugm-3,32,R,ugm-3
21-01-2007,09:00,8,R,ugm-3,34,R,ugm-3,46,R,ugm-3
21-01-2007,10:00,8,R,ugm-3,27,R,ugm-3,38,R,ugm-3
21-01-2007,11:00,9,R,ugm-3,23,R,ugm-3,36,R,ugm-3
21-01-2007,12:00,6,R,ugm-3,15,R,ugm-3,25,R,ugm-3
21-01-2007,13:00,5,R,ugm-3,13,R,ugm-3,21,R,ugm-3
21-01-2007,14:00,6,R,ugm-3,15,R,ugm-3,25,R,ugm-3
21-01-2007,15:00,8,R,ugm-3,19,R,ugm-3,31,R,ugm-3
21-01-2007,16:00,8,R,ugm-3,17,R,ugm-3,29,R,ugm-3
21-01-2007,17:00,8,R,ugm-3,23,R,ugm-3,34,R,ugm-3
21-01-2007,18:00,11,R,ugm-3,31,R,ugm-3,48,R,ugm-3